Find Starlink 1564

NORAD ID: 46058 Int'l Des: 2020-055 Owner: SPXS Country: US Constellation: starlink operational
LEOCIRCULAR

实时位置

正在加载3D地球...

关于 Starlink 1564

正在加载描述...

即将过境

Passes for default location (London). Set your location on the main map for personalized predictions.

高度历史

Loading altitude history...

两行轨道根数

1 46058U 20055AH 26127.20498941 -.00000172 00000-0 63310-5 0 9999
2 46058 53.1579 202.5710 0001343 81.4177 278.6976 15.30193083318023
Epoch: May 7, 2026 • Age: 4 hours

当前状态

高度 476.6 km
速度 7.63 km/s
星下点 30.60°N, 0.49°E
发射日期 Aug 7, 2020
运行时间 5.7 years
类型 internet

技术详情

分类 Payload
质量 260.00 kg
干质量 248.00 kg
总质量 260.00 kg
长度 0.20 m
直径 2.80 m
跨度 9.00 m
形状 Box + pan
制造商 SPXS
平台类型 Starlink
阶段状态 In Orbit
所有者/国家 SPXS/US

Most Searched